This demonstration page uses our WeatherBlox Daily Observations layout. Learn more.

Left ArrowRight Arrow

41.12389, -100.76542

Hourly Observations for March 25, 2019

Temp ( °F °C ) Dew Point ( °F °C ) Humidity (%) Winds ( mph kmh ) Pressure ( in mb ) Visibility ( mi km ) Precip ( " mm )
12:53 am 00:53 Cloudy 44 6.7 37 2.8 76 76 S 5 7 30.27 1025 10 16 0.00 0.00
1:53 am 01:53 Cloudy 43 6.1 37 2.8 80 80 Calm 30.27 1025 10 16 0.00 0.00
2:08 am 02:08 Cloudy 43 6.1 37 2.8 80 80 E 3 6 30.30 1026 10 16 0.00 0.00
2:53 am 02:53 Cloudy 43 6.1 38 3.3 82 82 E 6 9 30.28 1025 10 16 0.00 0.00
3:20 am 03:20 Cloudy 42 5.6 38 3.3 85 85 E 6 9 30.30 1026 10 16 0.00 0.00
3:39 am 03:39 Cloudy 42 5.6 39 3.9 89 89 SSE 3 6 30.31 1026 10 16 0.00 0.00
3:53 am 03:53 Cloudy 42 5.6 39 3.9 89 89 ESE 3 6 30.28 1025 10 16 0.00 0.00
4:07 am 04:07 Cloudy 41 5 38 3.3 89 89 SSE 3 6 30.31 1026 9 14 0.00 0.00
4:16 am 04:16 Cloudy 41 5 38 3.3 89 89 SSE 3 6 30.31 1026 9 14 0.00 0.00
4:53 am 04:53 Cloudy 42 5.6 39 3.9 89 89 Calm 30.27 1025 10 16 0.00 0.00
5:53 am 05:53 Cloudy 41 5 38 3.3 89 89 E 7 11 30.27 1025 8 13 0.00 0.00
6:09 am 06:09 Cloudy 41 5 39 3.9 93 93 E 6 9 30.31 1026 7 11 0.00 0.00
6:43 am 06:43 Cloudy 41 5 38 3.3 89 89 W 3 6 30.33 1027 7 11 0.00 0.00
6:53 am 06:53 Cloudy 41 5 39 3.9 93 93 Calm 30.29 1026 7 11 0.00 0.00
7:50 am 07:50 Cloudy with Mist and Fog 41 5 39 4 93 93 SSE 5 7 30.32 1027 6 10 0.00 0.00
7:53 am 07:53 Cloudy with Mist and Fog 41 5 39 3.9 93 93 S 3 6 30.29 1026 5 8 0.00 0.00
8:18 am 08:18 Cloudy 42 5.6 39 3.9 89 89 SW 3 6 30.32 1027 7 11 0.00 0.00
8:53 am 08:53 Cloudy 42 5.6 39 3.9 89 89 Calm 30.30 1026 8 13 0.00 0.00
9:33 am 09:33 Cloudy 43 6.1 39 3.9 86 86 SSE 5 7 30.32 1027 8 13 0.00 0.00
9:53 am 09:53 Cloudy 44 6.7 39 3.9 83 83 SE 6 9 30.30 1026 9 14 0.00 0.00
10:33 am 10:33 Cloudy 44 6.7 39 3.9 83 83 Calm 30.33 1027 9 14 0.00 0.00
10:53 am 10:53 Cloudy 46 7.8 40 4.4 79 79 Calm 30.31 1027 10 16 0.00 0.00
11:18 am 11:18 Cloudy 48 8.9 40 4.4 74 74 VRB 6 9 30.30 1026 10 16 0.00 0.00
11:42 am 11:42 Cloudy 49 9.4 40 4.4 71 71 VRB 3 6 30.29 1026 10 16 0.00 0.00
11:53 am 11:53 Cloudy 49 9.4 40 4.4 71 71 Calm 30.31 1026 10 16 0.00 0.00
12:53 pm 12:53 Cloudy 53 11.7 40 4.4 61 61 WSW 9 15 30.29 1026 10 16 0.00 0.00
1:21 pm 13:21 Cloudy 55 12.8 40 4.4 57 57 WSW 10 17 30.23 1024 10 16 0.00 0.00
1:53 pm 13:53 Cloudy 54 12.2 39 3.9 57 57 WSW 10 17 30.28 1026 10 16 0.00 0.00
2:53 pm 14:53 Mostly Cloudy 56 13.3 40 4.4 55 55 WSW 14 22 30.26 1025 10 16 0.00 0.00
3:53 pm 15:53 Partly Cloudy 59 15 40 4.4 49 49 SSW 13 20 30.20 1023 10 16 0.00 0.00
4:24 pm 16:24 Mostly Cloudy with Nearby Thunderstorms 57 13.9 39 3.9 51 51 WSW 15 24 30.18 1022 10 16 0.00 0.00
4:34 pm 16:34 Cloudy with Thunderstorms 47 8.3 38 3.3 71 71 W 21 33 30.27 1025 4 6 0.00 0.03
4:38 pm 16:38 Cloudy with Strong Thunderstorms 45 7.2 38 3.3 77 77 W 26 43 30.28 1026 3 4 0.02 0.51
4:43 pm 16:43 Cloudy with Heavy Rain 45 7.2 38 3.3 77 77 W 15 24 30.27 1025 2 3 0.06 1.52
4:53 pm 16:53 Cloudy with Nearby Thunderstorms 47 8.3 38 3.3 71 71 SSW 20 31 30.23 1024 6 10 0.08 2.03
5:04 pm 17:04 Cloudy with Nearby Thunderstorms 48 8.9 37 2.8 66 66 SW 12 19 30.23 1024 9 14 0.00 0.03
5:22 pm 17:22 Cloudy 47 8.3 38 3.3 71 71 NNE 8 13 30.23 1024 10 16 0.00 0.03
5:53 pm 17:53 Sunny 52 11.1 39 3.9 61 61 VRB 5 7 30.23 1024 10 16 0.00 0.03
6:53 pm 18:53 Cloudy 49 9.4 41 5 74 74 E 7 11 30.25 1025 10 16 0.00 0.00
7:53 pm 19:53 Cloudy 47 8.3 40 4.4 77 77 SSE 9 15 30.25 1024 10 16 0.00 0.03
8:53 pm 20:53 Mostly Cloudy 44 6.7 41 5 89 89 SE 7 11 30.27 1025 10 16 0.00 0.00
9:53 pm 21:53 Cloudy 43 6.1 41 5 93 93 ESE 5 7 30.29 1026 10 16 0.00 0.00
10:53 pm 22:53 Clear 40 4.4 37 2.8 89 89 Calm 30.31 1026 10 16 0.00 0.00
11:53 pm 23:53 Clear 39 3.9 37 2.8 93 93 S 3 6 30.30 1026 10 16 0.00 0.00

Powered by AerisWeather